Time,TemperatureF,DewpointF,PressureIn,WindDirection,WindDirectionDegrees,WindSpeedMPH,WindSpeedGustMPH,Humidity,HourlyPrecipIn,Conditions,Clouds,dailyrainin,SoftwareType,DateUTC
2013-10-24 00:08:00,35.5,32.0,29.65,NE,53,0.0,0.0,86,0.00,,,0.00,weatherlink.com 1.10,2013-10-24 04:08:00,
2013-10-24 00:23:00,35.6,32.0,29.66,NE,53,0.0,0.0,85,0.00,,,0.00,weatherlink.com 1.10,2013-10-24 04:23:00,
2013-10-24 00:38:00,35.7,31.0,29.66,NE,53,0.0,0.0,84,0.00,,,0.00,weatherlink.com 1.10,2013-10-24 04:38:00,
2013-10-24 00:53:00,35.9,32.0,29.66,NE,53,0.0,0.0,85,0.00,,,0.00,weatherlink.com 1.10,2013-10-24 04:53:00,
2013-10-24 01:08:00,35.9,32.0,29.66,NE,53,0.0,0.0,84,0.00,,,0.00,weatherlink.com 1.10,2013-10-24 05:08:00,
2013-10-24 01:23:00,35.7,31.0,29.66,NE,53,0.0,0.0,84,0.00,,,0.00,weatherlink.com 1.10,2013-10-24 05:23:00,
2013-10-24 01:38:00,35.4,31.0,29.66,NE,53,0.0,0.0,84,0.00,,,0.00,weatherlink.com 1.10,2013-10-24 05:38:00,
2013-10-24 01:53:00,35.1,31.0,29.66,NE,53,0.0,0.0,84,0.00,,,0.00,weatherlink.com 1.10,2013-10-24 05:53:00,
2013-10-24 02:08:00,34.8,31.0,29.66,NE,52,0.0,0.0,86,0.00,,,0.00,weatherlink.com 1.10,2013-10-24 06:08:00,
2013-10-24 02:23:00,34.7,31.0,29.66,NE,53,0.0,0.0,87,0.00,,,0.00,weatherlink.com 1.10,2013-10-24 06:23:00,
2013-10-24 02:38:00,34.7,31.0,29.66,NE,53,0.0,0.0,87,0.00,,,0.00,weatherlink.com 1.10,2013-10-24 06:38:00,
2013-10-24 02:53:00,34.8,31.0,29.66,NE,53,0.0,0.0,87,0.00,,,0.00,weatherlink.com 1.10,2013-10-24 06:53:00,
2013-10-24 03:08:00,34.9,31.0,29.65,NE,52,0.0,0.0,87,0.00,,,0.00,weatherlink.com 1.10,2013-10-24 07:08:00,
2013-10-24 03:23:00,34.5,31.0,29.65,ESE,110,0.0,0.0,86,0.00,,,0.00,weatherlink.com 1.10,2013-10-24 07:23:00,
2013-10-24 03:38:00,33.4,30.0,29.66,ESE,110,0.0,1.0,87,0.00,,,0.00,weatherlink.com 1.10,2013-10-24 07:38:00,
2013-10-24 03:53:00,33.1,30.0,29.66,SE,140,0.0,1.0,89,0.00,,,0.00,weatherlink.com 1.10,2013-10-24 07:53:00,
2013-10-24 04:08:00,33.3,31.0,29.67,SE,140,0.0,1.0,90,0.00,,,0.00,weatherlink.com 1.10,2013-10-24 08:08:00,
2013-10-24 04:23:00,34.0,31.0,29.68,SSW,199,0.0,1.0,88,0.00,,,0.00,weatherlink.com 1.10,2013-10-24 08:23:00,
2013-10-24 04:38:00,33.7,30.0,29.68,North,-999,-999.0,-999.0,87,0.00,,,0.00,weatherlink.com 1.10,2013-10-24 08:38:00,
2013-10-24 04:53:00,33.7,30.0,29.68,North,-999,-999.0,-999.0,87,0.00,,,0.00,weatherlink.com 1.10,2013-10-24 08:53:00,
2013-10-24 05:09:00,33.7,30.0,29.68,North,-999,-999.0,-999.0,87,0.00,,,0.00,weatherlink.com 1.10,2013-10-24 09:09:00,
2013-10-24 05:25:00,33.7,30.0,29.69,North,-999,-999.0,-999.0,87,0.00,,,0.00,weatherlink.com 1.10,2013-10-24 09:25:00,
2013-10-24 05:39:00,33.7,30.0,29.68,North,-999,-999.0,-999.0,87,0.00,,,0.00,weatherlink.com 1.10,2013-10-24 09:39:00,
2013-10-24 05:54:00,33.7,30.0,29.69,North,-999,-999.0,-999.0,87,0.00,,,0.00,weatherlink.com 1.10,2013-10-24 09:54:00,
2013-10-24 06:09:00,33.7,30.0,29.70,North,-999,-999.0,-999.0,87,0.00,,,0.00,weatherlink.com 1.10,2013-10-24 10:09:00,
2013-10-24 06:24:00,33.7,30.0,29.70,North,-999,-999.0,-999.0,87,0.00,,,0.00,weatherlink.com 1.10,2013-10-24 10:24:00,
2013-10-24 06:39:00,33.7,30.0,29.70,North,-999,-999.0,-999.0,87,0.00,,,0.00,weatherlink.com 1.10,2013-10-24 10:39:00,
2013-10-24 06:54:00,33.7,30.0,29.70,North,-999,-999.0,-999.0,87,0.00,,,0.00,weatherlink.com 1.10,2013-10-24 10:54:00,
2013-10-24 07:09:00,33.7,30.0,29.70,North,-999,-999.0,-999.0,87,0.00,,,0.00,weatherlink.com 1.10,2013-10-24 11:09:00,
2013-10-24 07:24:00,33.7,30.0,29.70,North,-999,-999.0,-999.0,87,0.00,,,0.00,weatherlink.com 1.10,2013-10-24 11:24:00,
2013-10-24 07:39:00,29.1,26.0,29.70,SW,225,0.0,0.0,87,0.00,,,0.00,weatherlink.com 1.10,2013-10-24 11:39:00,
2013-10-24 07:54:00,30.7,27.0,29.70,SW,225,0.0,0.0,86,0.00,,,0.00,weatherlink.com 1.10,2013-10-24 11:54:00,
2013-10-24 08:09:00,33.2,28.0,29.71,SW,225,0.0,0.0,82,0.00,,,0.00,weatherlink.com 1.10,2013-10-24 12:09:00,
2013-10-24 08:24:00,35.3,29.0,29.71,WSW,245,0.0,1.0,77,0.00,,,0.00,weatherlink.com 1.10,2013-10-24 12:24:00,
2013-10-24 08:39:00,36.5,29.0,29.71,NNW,337,0.0,1.0,73,0.00,,,0.00,weatherlink.com 1.10,2013-10-24 12:39:00,
2013-10-24 08:54:00,37.5,29.0,29.71,NNE,17,0.0,5.0,72,0.00,,,0.00,weatherlink.com 1.10,2013-10-24 12:54:00,
2013-10-24 11:56:00,40.3,30.0,29.70,WNW,295,1.0,2.0,66,0.00,,,0.00,weatherlink.com 1.10,2013-10-24 15:56:00,
2013-10-24 12:11:00,40.4,30.0,29.70,West,263,0.0,2.0,67,0.00,,,0.00,weatherlink.com 1.10,2013-10-24 16:11:00,
2013-10-24 12:26:00,40.5,29.0,29.70,East,86,1.0,3.0,65,0.00,,,0.00,weatherlink.com 1.10,2013-10-24 16:26:00,
2013-10-24 12:41:00,40.4,30.0,29.69,WSW,241,1.0,3.0,66,0.00,,,0.00,weatherlink.com 1.10,2013-10-24 16:41:00,
2013-10-24 12:56:00,40.7,28.0,29.69,NE,34,0.0,8.0,61,0.00,,,0.00,weatherlink.com 1.10,2013-10-24 16:56:00,
2013-10-24 13:11:00,41.6,28.0,29.68,West,267,0.0,3.0,60,0.00,,,0.00,weatherlink.com 1.10,2013-10-24 17:11:00,
2013-10-24 13:26:00,42.3,29.0,29.68,WSW,238,0.0,2.0,59,0.00,,,0.00,weatherlink.com 1.10,2013-10-24 17:26:00,
2013-10-24 13:41:00,41.5,28.0,29.69,WSW,240,0.0,2.0,59,0.00,,,0.00,weatherlink.com 1.10,2013-10-24 17:41:00,
2013-10-24 13:56:00,40.9,28.0,29.68,SW,225,3.0,4.0,61,0.00,,,0.00,weatherlink.com 1.10,2013-10-24 17:56:00,
2013-10-24 14:11:00,40.8,29.0,29.68,SE,136,0.0,2.0,62,0.00,,,0.00,weatherlink.com 1.10,2013-10-24 18:11:00,
2013-10-24 14:26:00,41.3,29.0,29.68,SW,219,2.0,4.0,63,0.00,,,0.00,weatherlink.com 1.10,2013-10-24 18:26:00,
2013-10-24 14:41:00,41.1,31.0,29.68,WSW,252,1.0,4.0,68,0.00,,,0.00,weatherlink.com 1.10,2013-10-24 18:41:00,
2013-10-24 15:11:00,41.2,31.0,29.69,NNW,345,0.0,2.0,67,0.00,,,0.00,weatherlink.com 1.10,2013-10-24 19:11:00,
2013-10-24 15:26:00,41.0,31.0,29.70,NNW,337,1.0,6.0,68,0.00,,,0.00,weatherlink.com 1.10,2013-10-24 19:26:00,
2013-10-24 15:41:00,40.6,32.0,29.70,South,187,0.0,0.0,71,0.00,,,0.00,weatherlink.com 1.10,2013-10-24 19:41:00,
2013-10-24 15:56:00,40.2,31.0,29.71,ESE,121,0.0,3.0,70,0.00,,,0.00,weatherlink.com 1.10,2013-10-24 19:56:00,
2013-10-24 16:11:00,40.1,32.0,29.72,SE,134,0.0,2.0,72,0.00,,,0.00,weatherlink.com 1.10,2013-10-24 20:11:00,
2013-10-24 16:26:00,39.7,32.0,29.72,ENE,65,0.0,2.0,75,0.00,,,0.00,weatherlink.com 1.10,2013-10-24 20:26:00,
2013-10-24 16:41:00,38.3,34.0,29.73,East,101,0.0,0.0,84,0.00,,,0.00,weatherlink.com 1.10,2013-10-24 20:41:00,
2013-10-24 16:56:00,36.8,34.0,29.74,SSW,200,1.0,3.0,89,0.00,,,0.00,weatherlink.com 1.10,2013-10-24 20:56:00,
2013-10-24 17:11:00,36.1,34.0,29.74,SSE,160,0.0,1.0,92,0.01,,,0.01,weatherlink.com 1.10,2013-10-24 21:11:00,
2013-10-24 17:26:00,35.7,34.0,29.75,ESE,109,0.0,3.0,93,0.01,,,0.01,weatherlink.com 1.10,2013-10-24 21:26:00,
2013-10-24 17:41:00,35.4,34.0,29.76,South,185,0.0,1.0,94,0.01,,,0.01,weatherlink.com 1.10,2013-10-24 21:41:00,
2013-10-24 17:56:00,35.3,34.0,29.76,ESE,116,0.0,1.0,95,0.01,,,0.01,weatherlink.com 1.10,2013-10-24 21:56:00,
2013-10-24 18:11:00,35.3,34.0,29.77,SW,224,1.0,1.0,95,0.00,,,0.01,weatherlink.com 1.10,2013-10-24 22:11:00,
2013-10-24 18:26:00,35.1,34.0,29.77,South,190,0.0,1.0,95,0.00,,,0.01,weatherlink.com 1.10,2013-10-24 22:26:00,
2013-10-24 18:41:00,35.1,34.0,29.78,SSE,152,0.0,1.0,95,0.00,,,0.01,weatherlink.com 1.10,2013-10-24 22:41:00,
2013-10-24 18:56:00,35.1,34.0,29.79,East,86,0.0,1.0,96,0.00,,,0.01,weatherlink.com 1.10,2013-10-24 22:56:00,
2013-10-24 19:12:00,35.1,34.0,29.79,SE,136,0.0,1.0,96,0.00,,,0.01,weatherlink.com 1.10,2013-10-24 23:12:00,
2013-10-24 19:27:00,35.0,34.0,29.80,SW,230,0.0,0.0,96,0.00,,,0.01,weatherlink.com 1.10,2013-10-24 23:27:00,
2013-10-24 19:42:00,34.9,34.0,29.80,SW,230,0.0,0.0,96,0.01,,,0.02,weatherlink.com 1.10,2013-10-24 23:42:00,
2013-10-24 19:57:00,34.9,34.0,29.80,SSW,209,0.0,1.0,96,0.01,,,0.02,weatherlink.com 1.10,2013-10-24 23:57:00,
2013-10-24 20:12:00,34.8,34.0,29.80,SSW,210,0.0,0.0,96,0.01,,,0.02,weatherlink.com 1.10,2013-10-25 00:12:00,
2013-10-24 20:27:00,34.4,34.0,29.81,SW,223,0.0,0.0,97,0.01,,,0.02,weatherlink.com 1.10,2013-10-25 00:27:00,
2013-10-24 20:42:00,34.3,34.0,29.82,SW,227,0.0,2.0,97,0.01,,,0.03,weatherlink.com 1.10,2013-10-25 00:42:00,
2013-10-24 20:57:00,34.1,33.0,29.82,SSE,160,0.0,1.0,97,0.01,,,0.03,weatherlink.com 1.10,2013-10-25 00:57:00,
2013-10-24 21:12:00,34.1,34.0,29.82,SSE,163,0.0,0.0,98,0.01,,,0.03,weatherlink.com 1.10,2013-10-25 01:12:00,
2013-10-24 21:27:00,34.0,34.0,29.83,South,190,0.0,1.0,98,0.01,,,0.03,weatherlink.com 1.10,2013-10-25 01:27:00,
2013-10-24 21:42:00,34.0,34.0,29.84,South,188,0.0,1.0,98,0.00,,,0.03,weatherlink.com 1.10,2013-10-25 01:42:00,
2013-10-24 21:57:00,33.9,33.0,29.84,SSE,150,0.0,1.0,98,0.00,,,0.03,weatherlink.com 1.10,2013-10-25 01:57:00,
2013-10-24 22:12:00,33.8,33.0,29.84,SSE,150,0.0,1.0,98,0.00,,,0.03,weatherlink.com 1.10,2013-10-25 02:12:00,
2013-10-24 22:27:00,33.8,33.0,29.84,SSE,149,0.0,0.0,98,0.00,,,0.03,weatherlink.com 1.10,2013-10-25 02:27:00,
2013-10-24 22:42:00,33.7,33.0,29.84,SSE,149,0.0,0.0,98,0.00,,,0.03,weatherlink.com 1.10,2013-10-25 02:42:00,
2013-10-24 22:57:00,33.6,33.0,29.85,SSE,149,0.0,1.0,98,0.00,,,0.03,weatherlink.com 1.10,2013-10-25 02:57:00,
2013-10-24 23:12:00,33.6,33.0,29.85,SSE,149,0.0,0.0,98,0.00,,,0.03,weatherlink.com 1.10,2013-10-25 03:12:00,
2013-10-24 23:27:00,33.5,33.0,29.85,SSE,149,0.0,1.0,98,0.00,,,0.03,weatherlink.com 1.10,2013-10-25 03:27:00,
2013-10-24 23:42:00,33.5,33.0,29.86,SSE,156,0.0,1.0,98,0.00,,,0.03,weatherlink.com 1.10,2013-10-25 03:42:00,
2013-10-24 23:57:00,33.5,33.0,29.86,SSE,156,0.0,1.0,98,0.00,,,0.03,weatherlink.com 1.10,2013-10-25 03:57:00,